Flag Weather past 2 weeks in Puerto Williams, Chile

Now
39 °F

Partly cloudy.


Feels Like: 34 °F
Forecast: 36 / 48 °F
Wind: 7 mph from North

Location: Ushuaia Aerodrome

Current Time: Nov 23, 2014 at 1:43:41 AM

Latest Report: Nov 23, 2014 at 1:00 AM


Visibility: N/A

Pressure: 29.47 "Hg

Humidity: 56%

Dew point: 25 °F

Location of Puerto WilliamsLocation

Historic Weather in Puerto Williams — Graph

°F

Puerto Williams temperature yesterday

Maximum temperature yesterday: 45 °F (at 1:00 PM)
Minimum temperature yesterday: 37 °F (at 7:00 AM)
Average temperature yesterday: 41 °F

Past Weeks' High & Low Weather Summary

 TemperatureHumidityPressure
High59 °F (Nov 16, 5:00 PM)93% (Nov 9, 3:00 AM)29.59 "Hg (Nov 9, 3:00 AM)
Low34 °F (Nov 15, 2:00 AM)31% (Nov 16, 4:00 PM)28.71 "Hg (Nov 17, 5:00 PM)
Average43 °F67%29.26 "Hg
* Reported Nov 8 1:00 AM — Midnight between Nov 22 and Nov 23, Puerto Williams, Weather by CustomWeather, © 2014

Note: Actual official high and low records may vary slightly from our data, if they occured in-between our weather recording intervals... More about our weather records

Advertising

Puerto Williams weather history for previous 24 hours

 ConditionsComfort  
Time TempWeatherWind HumidityBarometerVisibility
12:00 AM
Nov 23
39 °FScattered showers. Partly cloudy.23 mph65%29.50 "HgN/A
11:00 PM
Nov 22
39 °FScattered showers. Partly cloudy.25 mph65%29.47 "HgN/A
10:00 PM41 °FScattered showers. Passing clouds.23 mph57%29.47 "HgN/A
9:00 PM41 °FScattered showers. Passing clouds.25 mph57%29.47 "HgN/A
8:00 PM39 °FScattered showers. Partly sunny.24 mph70%29.47 "HgN/A
7:00 PM41 °FScattered showers. Partly sunny.25 mph66%29.47 "HgN/A
6:00 PM39 °FScattered showers. Partly sunny.29 mph81%29.47 "HgN/A
5:00 PM45 °FPartly sunny.22 mph49%29.47 "HgN/A
4:00 PM45 °FPartly sunny.24 mph57%29.47 "HgN/A
3:00 PM43 °FPartly sunny.24 mph57%29.47 "HgN/A
2:00 PM45 °FPartly sunny.20 mph57%29.47 "HgN/A
1:00 PM45 °FScattered showers. Partly sunny.20 mph57%29.47 "HgN/A
12:00 PM43 °FScattered showers. Partly sunny.17 mph71%29.47 "HgN/A
11:00 AM41 °FScattered showers. Partly sunny.21 mph70%29.47 "HgN/A
10:00 AM39 °FScattered showers. Partly sunny.17 mph61%29.50 "HgN/A
9:00 AM41 °FBroken clouds.14 mph53%29.50 "HgN/A
8:00 AM39 °FBroken clouds.5 mph61%29.53 "HgN/A
7:00 AM37 °FBroken clouds.3 mph65%29.53 "HgN/A
6:00 AM39 °FPartly sunny.3 mph48%29.53 "HgN/A
5:00 AM39 °FPartly sunny.7 mph48%29.53 "HgN/A
4:00 AM39 °FPassing clouds.5 mph48%29.53 "HgN/A
3:00 AM39 °FPartly cloudy.6 mph48%29.53 "HgN/A
2:00 AM39 °FPassing clouds.20 mph48%29.53 "HgN/A
1:00 AM39 °FPassing clouds.17 mph45%29.53 "HgN/A
Weather by CustomWeather, © 2014

See weather overviewHow to use our weather pages